Weather Roundup
Issued by NWS

Home | Current Version | Previous Version | Graphics & Text | Print | Product List | Glossary Off
Versions: 1 2 3 4 5 6 7 8 9 10 11 12 13 14 15 16 17 18 19 20 21 22 23 24 25 26 27 28 29 30 31 32 33 34 35 36 37 38 39 40 41 42 43 44 45 46 47 48 49 50

000
NZUS93 KARX 220410
HRRWXR

CURRENT HOURLY OBSERVATIONS ACROSS
MUCH OF THE UPPER MISSISSIPPI VALLEY
NATIONAL WEATHER SERVICE LA CROSSE WI
1100 PM CDT THU SEP 21 2017


...SOUTHEAST MINNESOTA...


CITY           SKY/WX    TMP DP  RH WIND       PRES   REMARKS
ROCHESTER      CLEAR     72  67  84 SE10      29.90R
ROCHESTER/MAYO FAIR      75  66  73 SE10      29.90R
WINONA         CLEAR     77  64  65 S5        29.90R
AUSTIN         CLEAR     75  66  73 S9        29.88R
ALBERT LEA     CLEAR     81  70  69 S15G22    29.86R
DODGE CENTER   CLEAR     75  66  73 SE12      29.88S
PRESTON        CLEAR     73  65  77 S13       29.92S
OWATONNA       PTCLDY    79  70  73 S15       29.85R
FARIBAULT      MOCLDY    81  70  69 SE13      29.85R
$$

...ELSEWHERE IN MINNESOTA...


CITY           SKY/WX    TMP DP  RH WIND       PRES   REMARKS
MINNEAPOLIS    PTCLDY    76  68  76 SE8       29.83R
INTNL FALLS    MOCLDY    64  55  72 SE8       29.83S
DULUTH         CLEAR     57  54  89 E10       29.90S
RED WING       MOCLDY    79  63  57 SE12      29.86R
REDWOOD FALLS  PTCLDY    76  69  79 SE9       29.76R
MANKATO        CLOUDY    80  71  74 S17       29.81R
WORTHINGTON    NOT AVBL
FAIRMONT       PTCLDY    77  71  82 S13       29.81R
$$

...SOUTHWEST WISCONSIN...


CITY           SKY/WX    TMP DP  RH WIND       PRES   REMARKS
LA CROSSE      NOT AVBL
PRAIRIE DU CHI CLEAR     78  66  66 S3        29.94R
BOSCOBEL       CLEAR     74  66  76 CALM      29.95R
LONE ROCK      PTCLDY    71  66  84 E5        29.97R
PLATTEVILLE    PTCLDY    73  69  89 SE6       29.98S
FORT MC COY    PTCLDY    74  65  73 S3        29.95S
CAMP DOUGLAS   CLEAR     69  67  94 SE5       29.96R
MAUSTON-NEW LI PTCLDY   N/A N/A N/A CALM      29.96S
VIROQUA        FAIR      73  67  83 CALM      29.97S
WIS DELLS      CLEAR     74  64  70 S9        29.97S
$$

...ELSEWHERE IN WISCONSIN...


CITY           SKY/WX    TMP DP  RH WIND       PRES   REMARKS
MILWAUKEE      PTCLDY    73  69  87 SE5       30.01S FOG
MADISON        PTCLDY    77  66  68 S7        29.98S
GREEN BAY      CLEAR     68  67  96 CALM      30.00S
EAU CLAIRE     MOCLDY    73  65  75 SE9       29.91R
BLACK RVR FLS  FAIR      72  62  72 S3        29.93S
MEDFORD        CLEAR     69  64  83 SE6       29.97S
WAUSAU         CLEAR     68  65  90 E5        29.98R
WIS RAPIDS     CLEAR     72  66  81 SE6       29.98S
MARSHFIELD     CLEAR     71  63  75 SE7       29.96S
RICE LAKE      CLEAR     72  65  77 SE12      29.91S
$$

...NORTHEAST IOWA...


CITY           SKY/WX    TMP DP  RH WIND       PRES   REMARKS
WATERLOO       CLEAR     76  68  76 SE14      29.90R
DUBUQUE        CLEAR     73  68  84 S10       29.97R
DECORAH        CLEAR     73  68  83 SE9G16    29.93R
MASON CITY     CLEAR     76  69  79 SE13G21   29.89R
CHARLES CITY   CLEAR     75  70  83 SE10G16   29.91R
OELWEIN        CLEAR     73  70  88 SE10      29.94R
$$

...ELSEWHERE IN IOWA...


CITY           SKY/WX    TMP DP  RH WIND       PRES   REMARKS
DES MOINES     CLEAR     81  69  67 S14       29.87R
IOWA CITY      CLEAR     75  71  87 SE5       29.95R
FORT DODGE     CLEAR     80  70  71 S13G18    29.85
MARSHALLTOWN   CLEAR     75  71  87 SE7       29.89R
CEDAR RAPIDS   CLEAR     77  71  82 S12       29.93R
$$

...NORTHERN ILLINOIS...


CITY           SKY/WX    TMP DP  RH WIND       PRES   REMARKS
CHICAGO-OHARE  MOCLDY    82  70  66 S6        30.01S
CHICAGO-MIDWAY CLOUDY    85  69  58 S7        30.01S
MOLINE         CLEAR     77  69  76 SE9       29.95S
ROCKFORD       PTCLDY    75  68  78 S8        30.01R
PEORIA         CLOUDY    79  70  74 S7        30.00R
$$

NOTE: "FAIR" INDICATES FEW OR NO CLOUDS BELOW 12,000 FEET WITH NO
SIGNIFICANT WEATHER AND/OR OBSTRUCTIONS TO VISIBILITY. WIND
SPEEDS ARE IN MILES-PER-HOUR.




USA.gov is the U.S. government's official web portal to all federal, state and local government web resources and services.